Wind_Speed
24 24 22 21 21 20 20 19 19 20 20 20 20 20 20 19 19 20 20 20 20 21 21 22 22 23 22 22 23 23 24 25 25 26 27 28 28 29 30 30 31 32 32
23 22 21 20 20 19 18 17 17 17 18 18 18 18 18 17 17 16 17 18 19 19 19 20 20 22 22 22 23 23 24 25 25 25 25 27 27 28 29 30 30 31 32
22 22 21 19 18 18 18 17 17 17 17 17 17 17 16 16 16 16 16 16 17 18 18 18 19 20 20 20 21 22 23 24 24 24 24 25 26 27 28 29 29 30 31
21 22 21 19 18 18 17 16 16 16 15 15 14 14 14 15 15 14 14 15 15 16 17 18 18 18 19 19 19 20 21 22 23 23 24 24 25 25 26 28 28 29 29
20 20 20 18 17 17 16 15 15 14 14 13 13 13 13 15 15 13 14 15 16 16 17 18 18 18 18 19 20 20 22 23 23 24 24 24 25 26 27 28 29 29 29
18 17 16 16 16 16 16 16 15 14 12 12 12 12 13 14 14 13 14 15 16 16 17 18 18 19 19 19 20 21 22 22 22 23 24 25 26 27 27 28 29 29 30
16 16 16 16 15 15 15 15 13 12 12 12 11 11 12 12 13 14 14 15 15 16 17 17 18 18 18 18 18 19 20 20 21 22 23 24 25 26 26 27 28 28 30
15 15 15 14 14 13 14 13 12 11 12 11 11 11 11 12 13 13 14 15 15 16 16 17 17 17 16 17 18 18 19 18 19 20 21 22 24 25 25 26 26 27 28
14 13 13 13 12 13 12 11 11 11 11 11 11 12 12 12 13 13 14 14 14 15 15 15 15 15 15 15 16 16 16 17 17 18 19 20 21 22 22 23 24 25 25
13 12 12 12 12 11 10 10 10 10 11 11 11 12 12 13 13 13 13 14 14 14 15 15 15 15 14 14 14 15 15 16 16 16 17 18 19 19 20 21 22 23 24
12 11 11 11 11 10 10 10 10 10 11 11 11 12 11 12 12 12 13 14 14 14 14 15 14 14 13 13 13 14 14 15 15 15 16 17 18 18 19 20 21 22 24
11 11 10 10 9 9 9 9 9 10 11 11 12 12 12 12 12 12 12 13 13 14 14 14 14 14 13 14 14 14 14 14 15 15 16 16 16 17 18 19 20 21 22
10 10 9 8 8 8 8 8 8 10 10 10 11 11 11 11 11 12 12 13 14 14 14 14 14 13 13 13 14 14 14 15 15 16 16 16 17 17 18 19 19 20 20
9 8 8 7 7 8 8 8 9 9 9 10 10 11 11 12 12 12 13 13 14 15 15 14 14 13 13 14 14 14 15 15 16 16 16 17 17 17 18 18 18 19 19
7 7 7 6 6 7 8 8 9 9 10 10 11 11 12 12 12 13 13 14 14 15 15 14 13 13 14 14 14 15 15 16 16 16 16 16 17 17 18 18 18 18 19
6 6 6 6 6 7 7 8 8 9 9 10 11 11 12 12 13 14 14 15 15 15 15 15 15 15 15 15 15 15 15 16 16 17 17 18 18 19 19 19 18 18 19
5 5 5 5 5 6 7 7 7 9 10 11 11 12 12 13 14 14 14 15 15 15 15 15 15 16 15 16 16 16 17 17 17 18 18 18 18 19 19 19 19 19 20
4 4 4 4 5 5 7 7 8 9 10 11 12 12 13 13 14 14 14 15 16 15 15 16 16 17 17 17 17 18 18 18 18 17 17 18 18 19 19 19 19 19 20
3 3 4 4 5 6 7 8 8 9 11 12 12 13 13 14 15 15 15 16 16 17 17 17 17 18 18 18 18 18 18 19 18 18 18 18 19 19 19 19 19 19 20
3 4 4 5 6 7 8 9 9 10 11 12 13 14 15 15 16 17 17 17 18 18 18 18 18 18 18 19 19 19 19 19 20 19 19 19 19 19 19 19 19 19 20
3 3 4 5 6 7 8 10 10 11 12 13 15 16 17 17 17 18 18 19 19 19 19 19 19 19 19 19 20 20 20 20 20 19 19 19 19 19 20 20 19 19 19
3 4 5 6 7 7 8 10 10 11 13 14 15 16 17 17 18 18 19 19 20 20 20 20 20 20 21 21 21 21 21 21 21 20 20 20 20 20 21 21 21 21 20
3 4 5 6 7 8 9 10 11 12 13 15 16 17 17 18 19 19 20 20 20 20 20 20 20 21 22 22 22 22 22 22 21 22 21 21 22 22 22 21 22 22 23
3 4 6 7 8 9 10 11 12 13 14 15 16 17 17 18 19 20 20 21 21 21 22 21 21 22 23 23 23 23 23 22 22 22 23 23 24 24 23 23 22 23 23
3 4 6 7 8 9 10 12 13 14 15 15 16 17 18 19 20 21 21 21 22 22 22 23 23 23 23 23 24 24 24 23 22 23 24 24 24 24 24 24 24 24 24
3 4 6 8 9 9 10 12 13 14 15 16 17 18 18 20 21 21 22 22 23 23 23 24 24 24 24 24 24 24 24 24 24 24 24 24 24 25 24 24 24 24 25
Wind_Direction
299 303 301 299 298 299 300 299 298 295 296 296 296 296 292 288 281 276 271 271 271 271 269 267 264 264 265 264 264 264 264 262 264 265 263 262 260 260 258 258 257 256 255
301 304 303 298 298 298 299 302 302 301 301 301 300 296 293 288 284 278 278 278 275 275 274 271 269 268 268 267 266 266 265 264 265 264 263 261 261 260 259 258 259 258 255
304 305 303 299 300 298 298 301 302 302 303 303 302 297 293 287 285 284 283 279 279 278 279 277 276 274 273 271 270 267 265 265 265 264 263 262 261 260 259 258 259 260 257
305 304 302 300 300 298 296 299 301 302 304 302 300 299 293 289 290 289 285 284 284 283 282 281 279 278 276 274 273 270 268 266 265 264 263 263 263 261 260 260 261 262 259
307 307 305 301 301 300 300 302 302 302 302 303 304 300 295 295 295 292 289 288 288 287 286 285 283 282 279 278 277 275 273 270 267 266 266 265 264 264 264 263 262 262 259
308 312 310 308 304 303 303 304 304 303 303 305 306 304 298 297 294 294 294 291 290 290 290 287 285 285 280 280 280 278 276 272 269 267 265 266 265 265 265 263 262 261 258
311 311 312 311 308 305 305 307 306 307 305 304 304 300 300 300 301 301 297 294 292 293 292 290 289 290 284 283 282 280 277 274 270 267 267 268 268 268 266 265 263 262 260
314 314 312 311 306 305 307 307 306 304 303 302 301 299 299 301 303 304 302 297 295 298 297 295 293 291 287 284 283 283 281 279 275 273 272 271 270 269 269 267 266 265 263
311 312 313 310 306 303 302 304 306 307 309 306 304 304 306 309 311 309 309 304 301 302 301 299 299 293 290 288 287 286 285 284 281 278 277 276 276 274 271 269 267 266 264
308 312 314 312 309 307 306 307 310 310 312 317 314 314 314 318 318 318 317 315 312 308 305 304 303 300 295 294 294 293 292 288 285 282 282 280 280 277 274 272 269 267 265
305 309 314 314 314 315 317 315 314 315 318 319 321 326 323 321 321 319 318 317 316 314 314 313 308 303 298 296 296 296 296 294 289 288 287 285 284 281 279 276 272 269 267
304 306 311 315 317 320 324 321 317 320 320 319 319 322 325 324 323 319 319 319 321 322 320 316 314 310 302 300 298 297 295 295 295 293 289 287 286 284 282 280 277 273 269
303 303 307 317 321 323 327 327 325 327 325 325 327 327 328 328 329 330 327 325 327 325 322 318 316 312 305 303 304 303 300 298 297 296 293 290 288 287 286 284 280 276 271
306 305 308 318 326 333 333 334 333 334 335 335 336 334 331 332 331 331 330 329 327 326 324 322 317 312 309 308 307 306 303 302 300 298 296 293 290 288 288 287 284 280 274
314 312 313 319 330 339 337 341 341 340 340 340 338 336 335 334 333 331 331 330 328 326 326 323 319 317 316 312 310 309 305 303 301 301 300 297 294 292 290 289 286 282 277
316 316 317 322 329 338 339 345 348 347 347 344 342 340 338 335 333 332 330 328 328 328 327 325 322 319 319 317 316 314 310 306 303 302 299 298 298 296 292 288 287 285 280
330 332 329 334 332 333 339 345 350 347 344 341 339 337 336 336 335 334 333 333 332 331 327 325 323 322 320 319 317 317 313 309 307 304 301 300 299 298 295 291 287 284 282
341 345 346 353 350 344 344 344 347 344 343 340 339 338 339 338 335 334 334 335 334 334 331 327 324 322 320 318 316 315 312 310 309 308 305 303 301 300 297 292 289 287 285
7 6 2 5 1 353 349 347 348 344 342 342 340 338 337 337 336 336 336 335 333 331 329 327 324 322 320 318 316 314 312 311 310 309 307 306 304 301 298 295 292 288 286
10 13 14 15 7 358 352 348 348 344 342 341 341 340 339 339 339 338 336 334 332 330 327 326 324 321 319 318 316 314 311 310 311 310 306 304 303 300 297 295 294 291 288
14 15 9 4 358 354 350 347 347 344 343 343 342 342 341 340 340 339 338 337 335 332 329 327 326 324 322 319 316 314 311 309 309 309 307 304 302 302 300 297 295 294 291
6 358 355 356 354 348 346 344 344 343 342 343 343 342 343 343 342 342 340 338 337 335 333 331 330 327 324 321 318 315 313 309 307 306 306 305 304 303 301 298 295 293 291
354 355 358 360 354 349 347 346 346 346 345 344 342 342 342 343 343 342 340 339 339 338 336 333 331 329 327 325 322 320 318 314 309 305 305 304 306 305 302 300 297 294 292
349 356 359 360 357 353 350 348 348 348 346 345 345 345 345 345 345 344 343 343 341 340 338 337 334 332 330 328 326 324 321 318 313 309 307 306 306 304 303 300 297 294 290
348 355 357 356 353 349 348 347 348 347 346 346 346 346 346 346 346 346 345 344 343 342 340 338 336 333 331 330 328 326 325 322 318 314 312 310 308 306 305 303 299 296 293
337 348 352 351 348 347 347 348 349 348 347 347 347 347 347 347 347 346 346 345 343 342 339 337 335 334 332 330 330 328 327 325 322 319 316 314 312 309 307 306 302 299 297
Height
5759 5756 5753 5751 5749 5746 5744 5742 5739 5736 5734 5732 5730 5727 5725 5724 5723 5722 5721 5721 5720 5719 5719 5718 5718 5718 5717 5717 5717 5717 5718 5718 5718 5718 5718 5718 5719 5720 5721 5722 5723 5724 5726
5754 5751 5748 5746 5743 5741 5739 5737 5734 5732 5729 5727 5725 5722 5721 5719 5718 5717 5716 5716 5715 5714 5713 5713 5712 5711 5711 5711 5710 5710 5711 5711 5711 5711 5711 5711 5712 5712 5713 5714 5715 5716 5717
5748 5746 5743 5741 5738 5736 5734 5732 5730 5728 5725 5722 5720 5718 5716 5715 5714 5713 5712 5711 5710 5709 5708 5707 5706 5706 5705 5704 5703 5703 5703 5704 5704 5704 5704 5704 5704 5705 5705 5706 5707 5707 5708
5743 5741 5738 5735 5733 5731 5729 5727 5726 5724 5721 5718 5716 5715 5713 5712 5710 5709 5707 5706 5705 5704 5703 5702 5701 5700 5699 5699 5698 5697 5697 5697 5697 5697 5697 5697 5697 5697 5698 5699 5699 5699 5700
5738 5736 5733 5731 5729 5727 5725 5723 5721 5720 5718 5715 5713 5711 5709 5708 5707 5705 5703 5702 5701 5700 5698 5697 5696 5695 5694 5693 5692 5691 5691 5690 5690 5690 5690 5690 5690 5690 5691 5691 5691 5691 5692
5734 5731 5729 5727 5725 5723 5721 5719 5717 5715 5714 5712 5710 5708 5706 5705 5703 5701 5700 5698 5697 5695 5694 5692 5691 5690 5688 5687 5686 5686 5685 5684 5684 5683 5683 5683 5683 5683 5683 5682 5683 5683 5684
5730 5728 5726 5723 5721 5720 5718 5716 5714 5712 5711 5709 5707 5705 5703 5701 5700 5698 5696 5694 5693 5691 5689 5687 5686 5684 5683 5682 5681 5680 5679 5678 5677 5677 5677 5676 5676 5675 5675 5675 5675 5675 5676
5727 5725 5723 5720 5718 5716 5714 5712 5711 5710 5708 5706 5704 5702 5700 5699 5697 5695 5692 5690 5688 5687 5685 5683 5681 5679 5678 5676 5675 5674 5673 5672 5671 5671 5670 5669 5669 5668 5667 5667 5667 5667 5667
5723 5721 5719 5717 5715 5713 5711 5710 5708 5707 5705 5703 5701 5700 5698 5696 5693 5691 5689 5687 5685 5683 5681 5679 5677 5675 5673 5672 5670 5669 5668 5666 5665 5665 5664 5663 5662 5661 5660 5660 5660 5659 5660
5719 5717 5715 5714 5712 5710 5709 5707 5706 5704 5702 5701 5699 5697 5695 5693 5691 5688 5686 5683 5681 5679 5677 5675 5673 5671 5669 5667 5666 5665 5663 5661 5660 5659 5658 5657 5655 5654 5654 5653 5653 5652 5652
5716 5714 5712 5711 5709 5708 5706 5705 5703 5702 5700 5698 5697 5695 5693 5691 5688 5686 5683 5680 5678 5675 5673 5671 5669 5667 5665 5663 5662 5660 5659 5657 5655 5653 5652 5651 5650 5649 5647 5647 5646 5645 5645
5712 5711 5710 5708 5707 5706 5704 5703 5701 5700 5698 5696 5695 5692 5690 5688 5686 5683 5681 5678 5675 5672 5670 5667 5665 5663 5661 5659 5658 5656 5654 5652 5650 5649 5647 5646 5644 5643 5642 5640 5639 5638 5637
5709 5708 5707 5706 5705 5704 5702 5701 5699 5698 5696 5695 5693 5690 5688 5686 5683 5681 5678 5675 5673 5670 5667 5665 5662 5660 5657 5655 5653 5651 5649 5648 5646 5644 5642 5641 5639 5637 5636 5634 5632 5631 5630
5706 5705 5705 5704 5703 5701 5700 5699 5698 5696 5695 5693 5691 5688 5686 5684 5681 5679 5676 5673 5670 5667 5664 5661 5659 5656 5654 5652 5650 5648 5646 5643 5641 5640 5638 5636 5634 5632 5630 5628 5627 5625 5624
5704 5703 5702 5702 5701 5700 5699 5698 5696 5695 5693 5691 5689 5687 5684 5682 5679 5676 5674 5671 5668 5665 5661 5659 5656 5653 5651 5649 5646 5644 5642 5640 5637 5635 5633 5631 5629 5627 5625 5623 5621 5619 5618
5702 5701 5701 5700 5700 5699 5698 5697 5695 5694 5692 5690 5688 5685 5683 5680 5677 5674 5671 5669 5665 5662 5659 5656 5653 5650 5648 5645 5642 5640 5637 5635 5633 5631 5628 5626 5624 5621 5619 5617 5615 5614 5612
5701 5700 5700 5699 5699 5698 5697 5695 5694 5693 5691 5689 5686 5684 5681 5678 5675 5672 5669 5666 5662 5659 5656 5653 5650 5647 5644 5642 5639 5636 5633 5631 5628 5626 5623 5621 5618 5616 5613 5611 5609 5608 5606
5700 5699 5699 5698 5698 5697 5696 5694 5693 5691 5689 5687 5685 5682 5679 5676 5673 5670 5666 5663 5659 5656 5653 5650 5647 5644 5641 5638 5635 5632 5629 5626 5623 5620 5618 5615 5613 5610 5608 5605 5604 5602 5600
5700 5699 5699 5698 5697 5696 5695 5693 5692 5690 5688 5685 5683 5680 5677 5674 5670 5667 5663 5660 5657 5653 5650 5647 5643 5640 5637 5633 5630 5627 5624 5621 5618 5615 5612 5610 5607 5605 5602 5600 5598 5596 5594
5700 5699 5698 5697 5697 5696 5694 5692 5690 5688 5686 5683 5681 5678 5674 5671 5668 5664 5660 5657 5653 5650 5646 5643 5639 5635 5632 5629 5625 5622 5619 5616 5612 5609 5607 5604 5602 5599 5597 5594 5592 5590 5588
5699 5698 5698 5697 5696 5695 5693 5691 5689 5687 5685 5682 5679 5676 5672 5669 5665 5661 5657 5653 5649 5646 5642 5638 5635 5631 5627 5624 5620 5617 5613 5610 5607 5604 5601 5599 5596 5593 5591 5588 5586 5584 5582
5698 5698 5697 5696 5695 5693 5692 5690 5688 5685 5683 5680 5677 5673 5670 5666 5662 5658 5654 5650 5646 5642 5638 5634 5630 5626 5623 5619 5615 5612 5608 5605 5602 5598 5596 5593 5590 5587 5585 5582 5580 5577 5575
5698 5697 5696 5695 5694 5692 5691 5689 5686 5684 5681 5678 5675 5671 5667 5663 5660 5655 5651 5647 5642 5638 5634 5630 5626 5622 5618 5614 5610 5606 5603 5599 5596 5592 5589 5586 5584 5581 5578 5575 5572 5570 5568
5697 5696 5695 5694 5692 5691 5689 5687 5684 5682 5679 5676 5672 5669 5665 5661 5657 5653 5648 5644 5639 5635 5631 5626 5622 5618 5614 5609 5605 5601 5597 5593 5589 5586 5583 5580 5577 5573 5570 5567 5565 5562 5560
5695 5695 5694 5693 5691 5690 5688 5685 5683 5680 5677 5674 5671 5667 5663 5659 5655 5650 5646 5641 5637 5632 5627 5623 5618 5614 5609 5605 5600 5596 5592 5587 5584 5580 5576 5573 5569 5566 5563 5560 5557 5554 5551
5695 5694 5693 5691 5690 5688 5686 5684 5681 5678 5675 5672 5669 5665 5661 5657 5653 5648 5643 5639 5634 5629 5624 5619 5614 5610 5605 5600 5596 5591 5587 5583 5578 5574 5570 5566 5562 5559 5555 5552 5548 5545 5542